Location: Jackson Park
(37.2862°N, 79.9123°W)
Time: 21:05:21
(UTC+00:00)

Transit 4A - Pass Details

Date: 17 May 2026
Orbit: 860 x 980 km, 66.8° (Epoch: 9 June)

Event Time Altitude Azimuth Distance (km) Brightness Sun altitude
Rises 21:25:17 0° 335° (NNW) 3,687 11.3 33.4°
Reaches altitude 10° 21:27:55 10° 340° (NNW) 2,737 10.7 32.9°
Maximum altitude 21:34:15 58° 59° (ENE) 1,123 8.5 31.6°
Drops below altitude 10° 21:40:28 10° 138° (SE) 2,691 10.0 30.4°
Sets 21:43:02 0° 142° (SE) 3,620 10.6 29.9°
